星链-34222 (STARLINK-34222)

导读

STARLINK-34222是美国于2025年5月28日发射的星链卫星,星链是太空探索技术公司(SpaceX)打造的低轨卫星互联网星座项目,该卫星旨在为全球范围内提供高速互联网接入服务,特别服务偏远地区与基础设施匮乏区域,进一步扩充了星链星座的网络覆盖能力与服务容量。

基本信息
目录编号:
64191
目录名称:
STARLINK-34222
国际标识:
2025-113X
轨道中心:
EARTH
卫星名称:
星链-34222
卫星全名:
星链-34222 (STARLINK-34222)
卫星状态:
在轨 (已飞行465 天)
发射日期:
2025-05-28 UTC
国别 :
美国 (US)
星等 :
--
轨道信息
数据来源 国际轨道数据
星历时间: 2026-09-05T01:40:06+0800
18小时前
查看轨道信息
半长轴: 6840.815km
偏心率: 0.0001528
轨道倾角: 53.161°
近地点辐角 78.606°
升交点赤经 339.072°
平近点角 281.512°
近地点: 461.632km
远地点: 463.724km
周期: 93.847分钟
每日圈数: 15.344087
详细信息
固有亮度:
5
最大亮度:
2.5
卫星平台:
Starlink V1.0
覆盖范围:
全球
运营商:
太空探索技术公司
运营商所在国:
美国
制造商(研发单位):
太空探索技术公司
制造商所在国:
美国
使用方式:
暂无
卫星简介
Starlink 计划是 SpaceX 推出的全球卫星互联网项目,通过发射低轨道卫星,为全球尤其是偏远地区提供高速、低延迟的互联网服务。自 2019 年起,Starlink 已部署数千颗卫星,旨在缩小全球数字鸿沟,推动互联网普及。该项目还为军事、航空等行业提供通信支持,带来广泛经济效益。
2D轨道图
3D轨道图
轨道高度分析图
轨道倾角分析图
轨道综合分析图
查看轨道综合分析图
交会数据列表
事件ID 空间交会对象 最接近时刻(TCA) 交会距离 交会风险概率(CRP) 交会风险指数(CRI) 操作
CDM_260907-142106-419106-619221
2026-09-07T
14:21:06+0000
2.223 km
极远距离
1.940483E-6 低风险 0.41
CDM_260907-155406-419106-619221
2026-09-07T
15:54:53+0000
2.405 km
极远距离
1.652737E-6 低风险 0.39
CDM_260907-081305-264206-419121
2026-09-07T
08:13:11+0000
2.644 km
极远距离
1.426218E-6 低风险 0.38
CDM_260907-195005-363406-419121
2026-09-07T
19:50:07+0000
2.641 km
极远距离
1.412836E-6 低风险 0.38